Regional Weather Roundup
Issued by NWS

Home | Current Version | Previous Version | Graphics & Text | Print | Product List | Glossary On
Versions: 1 2 3 4 5 6 7 8 9 10 11 12 13 14 15 16 17 18 19 20 21 22 23 24 25 26 27 28 29 30 31 32 33 34 35 36 37 38 39 40 41 42 43 44 45 46 47 48 49 50
701
ASUS43 KOAX 282302
RWRNE

WEATHER ROUNDUP FOR NEBRASKA
NATIONAL WEATHER SERVICE OMAHA NE
600 PM CDT SUN AUG 28 2016

NOTES: SATELLITE DATA IS BEING USED TO AUGMENT CLOUD COVER ABOVE
       12000 FEET.
       "FAIR" INDICATES FEW OR NO CLOUDS BELOW 12,000 FEET WITH NO
       SIGNIFICANT WEATHER AND/OR OBSTRUCTIONS TO VISIBILITY.

  * THESE STATIONS DO NOT REPORT WEATHER SUCH AS RAIN...SNOW OR FOG.

NEZ001>004-019>022-054>056-290000-
NEBRASKA PANHANDLE

CITY           SKY/WX    TMP DP  RH WIND       PRES   REMARKS
SCOTTSBLUFF    CLOUDY    85  53  33 SE10      30.06S
ALLIANCE       CLOUDY    87  45  23 S10       30.06S
CHADRON        SUNNY     94  29  10 VRB3      29.98R
SIDNEY         CLOUDY    84  50  30 S15       30.11R
$$

NEZ057>060-069>072-079>082-290000-
SOUTHWEST NEBRASKA

CITY           SKY/WX    TMP DP  RH WIND       PRES   REMARKS
NORTH PLATTE   SUNNY     86  55  34 S13       30.05S
IMPERIAL       SUNNY     85  54  34 S13       30.07R
LEXINGTON      PTSUNNY   83  61  46 S12       30.06S
MCCOOK         PTSUNNY   80  60  50 S10       30.05F
OGALLALA       SUNNY     89  48  24 S14       30.06R
$$

NEZ005>010-023>029-035>040-094-290000-
NORTH CENTRAL NEBRASKA

CITY           SKY/WX    TMP DP  RH WIND       PRES   REMARKS
AINSWORTH      CLOUDY    88  60  38 S16G24    30.01S
BROKEN BOW     MOSUNNY   83  63  50 S10G21    30.05S
O`NEILL        SUNNY     91  53  27 S14       30.02S
ORD            SUNNY     87  59  38 S9        30.02S
THEDFORD       MOSUNNY   92  56  30 S15G22    30.03S HX  90
$$

NEZ041-046>049-061>064-073>077-083>087-290000-
SOUTH CENTRAL NEBRASKA

CITY           SKY/WX    TMP DP  RH WIND       PRES   REMARKS
GRAND ISLAND   MOSUNNY   89  64  43 SE13G21   30.03F HX  90
AURORA         SUNNY     88  66  48 S13       30.04S HX  90
HASTINGS       SUNNY     88  65  46 S13       30.05S HX  90
HEBRON         MOSUNNY   85  69  57 S8        30.04R
HOLDREGE       MOSUNNY   83  64  52 S7        30.05S
KEARNEY *      CLOUDY    86  68  54 S12       30.03S
YORK           SUNNY     86  68  54 S10       30.05R
$$

NEZ011>018-030>034-042>045-290000-
NORTHEAST NEBRASKA

CITY           SKY/WX    TMP DP  RH WIND       PRES   REMARKS
NORFOLK        CLOUDY    85  71  63 SE9       30.03S HX  90
ALBION         PTSUNNY   85  67  54 S13       30.04S
BLAIR          MOSUNNY   85  73  67 SE10      30.06S HX  92
FREMONT        SUNNY     84  65  51 SE9       30.05S
TEKAMAH        TSTM      76  65  68 SE22G39   30.05R
WAYNE          CLOUDY    83  75  78 S10       30.04S HX  90
$$

NEZ050>053-065>068-078-088>093-290000-
SOUTHEAST NEBRASKA

CITY           SKY/WX    TMP DP  RH WIND       PRES   REMARKS
LINCOLN        MOSUNNY   83  67  58 SE22G30   30.07R
OMAHA EPPLEY   PTSUNNY   82  68  62 SE24      30.07R
BEATRICE       CLOUDY    78  69  75 E14G24    30.07R
FALLS CITY     CLOUDY    75  70  84 NE8       30.10R
NEBRASKA CITY  CLOUDY    68  68 100 S8        30.09F
PLATTSMOUTH    CLOUDY    76  67  72 SE8G21    30.09S
$$

NEZ044-045-051>053-067-290000-
OMAHA AREA

CITY           SKY/WX    TMP DP  RH WIND       PRES   REMARKS
OMAHA EPPLEY   PTSUNNY   82  68  62 SE24      30.07R
BLAIR          MOSUNNY   85  73  67 SE10      30.06S HX  92
FREMONT        SUNNY     84  65  51 SE9       30.05S
MILLARD        SUNNY    N/A N/A N/A SE15      30.06S
OFFUTT AFB     CLOUDY    80  71  74 SE18      30.07R
PLATTSMOUTH    CLOUDY    76  67  72 SE8G21    30.09S
WAHOO          FAIR      83  69  61 SE14      30.06R
$$




USA.gov is the U.S. government's official web portal to all federal, state and local government web resources and services.